Back to catalog

STARLINK-35417

AliveCommunicationsVLEO
NORAD 66335·PAYLOAD·🇺🇸 United States

Launched Nov 6, 2025 from Cape Canaveral Space Force Station

Loading…

Next Passes (next 24 hours)

TLE

FreshSource: CelesTrak SupGP

Epoch: Sep 14, 2026, 23:02 UTC

1 66335C 25253S   26257.96020833  .00008860  00000+0  32081-3 0  2578
2 66335  43.0007 223.6482 0001315 263.3230 343.9259 15.27582804    13

Track STARLINK-35417 in real time with AllMySat

Download on the App Store